Wind_Speed
32 35 38 40 42 43 45 48 48 49 50 50 50 51 51 51 51 50 49 48 47 46 44 44 43 42 41 41 41 41 41 40 40 39 38 37 38 38 37 37 36 36 36 36
30 32 35 37 41 41 43 45 46 47 48 50 51 51 51 52 51 50 48 47 47 48 46 45 45 45 44 43 42 42 42 42 41 40 40 39 39 39 38 38 38 38 38 38
29 29 31 35 38 40 41 43 44 45 46 48 51 52 51 52 52 51 50 48 47 48 47 46 46 45 45 44 43 42 42 42 42 42 42 41 41 41 40 39 40 40 40 39
28 27 29 33 35 37 39 41 42 43 44 47 49 52 51 51 52 52 50 49 47 48 48 48 47 46 45 44 44 44 43 43 43 43 43 43 42 42 41 41 42 42 41 41
26 26 27 30 32 35 35 36 38 40 42 44 47 50 50 50 51 51 51 50 48 47 48 48 47 46 46 46 45 45 45 45 44 44 43 44 43 43 43 43 43 43 43 43
24 25 26 27 30 33 34 33 35 38 40 43 45 47 49 48 48 48 49 49 48 47 47 47 47 46 46 46 46 46 46 45 45 45 44 44 44 44 44 44 43 43 43 43
21 23 25 26 28 32 33 33 33 35 38 41 41 44 46 45 45 46 46 47 47 46 47 47 45 45 45 45 45 46 46 46 46 46 45 45 45 45 44 44 44 43 43 43
19 21 24 27 28 29 31 33 34 34 36 38 39 42 43 42 43 44 45 46 46 45 46 46 46 45 45 45 45 45 45 45 45 46 45 45 45 46 45 45 44 44 43 42
19 20 23 25 26 27 28 31 34 34 34 36 38 39 41 41 41 42 44 46 45 44 44 45 46 46 45 45 46 46 45 45 45 45 45 46 46 46 46 45 45 45 45 43
17 20 22 23 24 26 27 29 31 34 34 35 37 37 38 38 39 41 43 44 45 44 44 44 45 45 46 46 46 46 46 46 47 47 46 46 46 46 47 46 46 46 45 45
15 19 22 23 22 24 26 29 31 32 34 34 35 36 36 36 37 39 41 43 44 45 45 45 46 46 47 47 47 46 47 47 47 46 46 45 46 46 46 46 46 46 46 46
15 18 21 23 22 22 24 27 29 31 33 33 34 34 35 36 36 37 39 41 43 45 46 46 47 47 47 47 48 48 48 47 47 47 46 46 46 46 46 46 46 46 46 46
15 18 20 23 24 23 23 25 27 29 32 33 33 32 32 35 36 37 38 40 41 43 45 46 47 47 47 47 48 48 48 48 48 48 48 47 47 47 47 47 47 47 46 46
16 17 20 22 24 25 24 24 24 26 28 30 31 31 31 33 35 36 37 39 40 41 42 44 46 47 47 48 47 47 47 48 48 48 48 48 48 48 49 49 49 49 48 48
16 17 19 21 22 24 25 24 24 25 27 28 28 28 28 30 32 34 35 37 39 40 42 43 45 46 47 47 48 47 47 48 48 49 49 49 49 49 49 50 50 50 50 49
15 18 19 20 22 24 25 24 24 25 26 27 27 27 27 28 31 32 33 35 37 38 39 41 42 44 45 46 47 47 47 47 47 48 48 48 49 49 49 50 50 50 49 49
15 16 18 20 22 24 25 25 26 27 26 27 28 27 28 27 28 30 31 33 35 36 37 38 40 41 43 44 45 46 47 47 46 46 47 47 47 48 48 49 49 49 49 49
16 17 18 20 22 25 25 26 27 28 28 28 28 28 28 29 29 30 31 31 32 33 35 37 39 40 41 42 43 44 45 46 46 47 47 47 47 47 47 47 47 48 48 48
16 18 19 20 22 24 25 26 27 28 28 29 29 29 30 30 30 31 32 32 32 33 33 35 37 38 40 41 42 42 43 44 44 45 46 46 46 46 46 46 45 46 46 46
16 18 20 21 23 24 24 24 26 27 27 27 28 29 29 30 30 30 32 32 33 34 34 35 36 37 38 40 41 42 43 43 43 44 45 45 46 46 46 46 45 45 45 46
19 19 20 21 22 23 23 24 25 26 25 26 27 29 29 29 29 29 30 32 33 34 34 35 36 36 38 39 40 40 41 42 43 43 43 44 44 44 45 44 45 45 45 45
20 20 20 21 21 21 22 24 25 25 26 26 27 27 28 29 29 29 30 31 33 34 35 35 36 36 37 38 39 39 40 41 42 42 43 43 44 44 44 44 44 44 44 44
20 21 21 22 22 22 23 23 24 26 26 26 27 27 28 28 29 29 29 30 31 32 34 35 35 35 36 37 38 39 39 39 40 41 41 42 43 43 43 44 44 44 43 43
21 21 21 22 22 23 23 23 24 25 26 26 27 28 28 29 29 30 30 31 31 32 33 34 34 35 35 36 36 37 37 38 38 39 40 41 41 42 42 42 42 42 42 42
22 22 23 23 22 22 23 23 24 24 25 26 26 27 27 28 29 30 31 31 32 32 32 33 34 35 35 35 35 35 35 36 37 38 38 39 39 39 39 39 39 39 39 40
21 22 22 22 22 22 23 23 24 24 25 26 26 26 26 27 27 28 30 31 32 32 32 32 33 34 34 34 35 34 34 34 35 35 36 37 37 37 37 37 37 37 38 38
Wind_Direction
221 222 223 223 225 227 228 228 227 227 226 226 226 226 225 225 226 227 228 229 230 231 232 234 235 236 237 238 239 240 241 242 244 245 246 247 249 251 253 254 255 257 259 261
222 225 225 224 224 225 226 226 227 227 228 228 227 227 226 226 226 228 228 229 231 232 232 234 235 237 237 238 240 240 242 243 244 246 247 248 250 251 253 255 256 258 259 260
223 224 224 224 224 224 225 225 225 226 228 229 229 229 228 227 227 228 228 229 231 232 233 235 236 238 238 238 239 241 242 243 244 246 247 248 250 252 253 255 256 258 258 259
221 221 223 222 221 224 224 224 225 227 229 230 229 231 229 229 229 229 229 230 232 234 234 236 238 239 239 239 240 241 243 244 245 246 248 249 251 253 255 256 257 258 259 261
220 221 222 222 221 222 222 224 226 228 230 233 231 233 231 231 231 231 232 233 234 236 236 237 239 240 240 240 240 242 243 244 245 247 249 250 251 253 255 257 259 261 261 262
222 222 224 222 221 221 222 222 225 227 228 232 231 233 233 232 233 234 234 235 235 237 238 239 240 240 241 241 241 241 243 244 246 248 249 251 253 255 256 258 260 262 262 263
219 221 220 218 218 219 221 221 223 225 228 231 232 235 235 233 233 234 235 236 236 237 238 239 239 240 241 242 242 243 243 245 247 248 250 252 254 256 257 258 260 262 262 262
220 218 218 216 217 218 221 223 225 229 232 233 234 236 235 233 233 234 234 235 236 237 238 239 239 240 241 242 243 244 245 246 248 249 250 252 254 255 256 258 260 261 262 263
222 221 218 217 218 221 223 224 228 233 237 238 238 239 239 236 235 235 236 236 237 238 238 239 240 240 241 242 243 244 244 246 248 249 250 252 254 255 257 259 260 261 261 263
227 224 219 217 220 225 228 227 228 233 239 242 242 241 240 239 238 238 238 237 237 238 238 239 240 240 241 243 243 244 245 247 248 249 251 253 255 256 257 258 258 259 260 262
232 227 220 221 223 224 225 227 230 235 241 245 246 244 241 240 239 239 239 238 238 239 239 239 240 241 242 243 244 245 246 246 248 249 250 253 254 255 256 256 258 258 260 261
234 229 226 226 225 226 230 233 235 237 241 246 248 248 244 242 241 240 239 239 240 239 239 239 240 241 242 244 245 246 247 247 248 249 250 252 254 256 256 256 258 260 261 261
234 235 233 230 230 230 233 237 241 243 244 246 249 250 247 246 245 244 242 240 240 240 240 240 241 241 242 243 245 247 248 249 249 250 252 253 255 256 257 257 258 260 261 262
236 238 238 237 237 237 237 239 242 245 246 249 252 253 250 248 248 246 244 242 241 241 242 241 242 243 243 244 246 247 248 249 251 252 254 255 256 257 257 258 258 259 260 262
241 239 238 239 241 240 240 241 243 246 248 251 253 254 253 252 252 249 247 245 244 244 244 243 243 244 244 246 247 248 249 250 251 252 254 256 257 257 257 258 259 260 262 263
250 247 242 241 242 243 242 242 244 247 248 250 253 254 255 256 252 248 246 246 247 247 246 245 244 244 245 246 247 248 250 251 252 253 254 256 257 257 258 258 259 260 262 263
258 252 249 246 243 244 244 244 245 248 250 252 253 254 255 255 253 250 248 247 248 248 246 246 245 245 245 246 247 248 249 251 252 254 254 255 257 258 258 259 260 261 262 263
266 260 255 252 248 248 248 249 250 251 252 253 254 256 257 257 254 251 250 248 248 247 246 246 246 246 247 248 248 249 250 251 253 253 254 255 257 258 259 260 261 262 262 263
272 266 260 256 254 253 252 253 254 254 254 255 255 254 255 256 256 254 253 251 248 247 247 247 247 248 249 249 250 251 252 253 254 254 255 256 257 257 259 260 261 263 264 265
276 273 268 264 260 259 258 257 257 256 256 256 255 255 256 257 257 255 254 253 251 250 250 250 251 250 251 251 251 253 254 255 255 256 256 256 257 257 258 260 261 263 265 266
277 275 272 268 265 263 262 260 258 257 257 258 257 258 258 259 259 258 257 256 254 253 253 253 253 253 253 253 253 255 255 256 256 256 257 257 258 258 259 261 262 264 265 266
274 274 273 270 268 267 265 263 261 262 261 261 261 260 260 258 258 258 258 258 256 255 255 255 255 255 255 255 255 256 257 258 258 257 258 259 260 261 261 263 264 265 266 267
276 274 271 271 269 268 267 265 264 263 263 262 262 262 260 259 258 258 258 258 257 256 256 256 256 257 257 258 258 258 259 259 259 259 260 261 261 261 262 263 264 264 265 266
280 276 274 272 269 269 268 267 264 263 263 264 264 263 262 261 260 259 259 258 258 258 259 258 258 257 258 259 260 261 261 261 261 262 262 262 263 263 263 263 264 264 264 265
285 279 277 275 272 269 268 268 266 265 264 265 267 265 263 262 260 258 258 258 258 259 259 258 258 258 259 259 260 261 262 262 262 262 262 263 263 263 263 264 264 264 265 264
288 283 279 278 275 272 270 269 268 267 267 267 268 266 264 264 263 262 261 261 261 260 258 258 258 258 259 259 260 261 261 262 262 262 262 263 264 264 264 264 264 265 264 265
Height
5611 5617 5622 5629 5636 5644 5650 5657 5663 5670 5677 5683 5690 5698 5706 5712 5719 5726 5733 5739 5745 5750 5755 5759 5764 5768 5771 5775 5779 5782 5785 5788 5791 5794 5796 5799 5801 5803 5804 5806 5807 5808 5809 5810
5607 5611 5618 5624 5629 5635 5641 5648 5655 5662 5668 5675 5681 5689 5696 5703 5711 5718 5724 5730 5736 5742 5746 5751 5755 5759 5763 5767 5770 5773 5776 5779 5782 5785 5788 5790 5792 5794 5796 5798 5799 5800 5801 5802
5602 5609 5613 5618 5623 5628 5634 5641 5648 5654 5661 5666 5672 5679 5687 5694 5701 5708 5715 5721 5727 5733 5738 5742 5746 5750 5754 5758 5761 5764 5768 5771 5774 5777 5779 5782 5784 5786 5787 5789 5790 5791 5792 5793
5598 5603 5608 5612 5617 5623 5629 5636 5641 5647 5652 5657 5663 5668 5678 5685 5692 5699 5706 5713 5718 5724 5729 5733 5737 5741 5745 5748 5752 5755 5758 5762 5765 5767 5770 5773 5775 5777 5779 5780 5781 5782 5783 5784
5595 5599 5603 5607 5613 5618 5625 5630 5635 5640 5645 5649 5655 5660 5668 5676 5683 5691 5698 5704 5710 5715 5720 5724 5728 5732 5736 5739 5743 5746 5749 5752 5755 5758 5761 5763 5766 5767 5769 5771 5772 5773 5774 5774
5592 5596 5600 5604 5609 5614 5619 5624 5629 5633 5637 5641 5647 5652 5659 5668 5676 5683 5689 5695 5700 5705 5710 5714 5718 5722 5726 5730 5733 5737 5740 5743 5746 5749 5751 5754 5756 5758 5760 5761 5762 5763 5764 5764
5589 5593 5596 5600 5604 5609 5613 5618 5622 5625 5628 5633 5640 5644 5652 5662 5668 5674 5679 5685 5690 5695 5700 5704 5708 5712 5716 5720 5724 5727 5730 5734 5736 5739 5742 5744 5746 5748 5750 5751 5752 5754 5754 5755
5586 5590 5593 5596 5601 5605 5609 5614 5618 5621 5623 5628 5633 5637 5646 5654 5659 5664 5670 5675 5679 5684 5689 5694 5698 5702 5707 5710 5714 5717 5721 5724 5727 5729 5732 5734 5737 5738 5740 5741 5742 5743 5744 5745
5584 5588 5591 5594 5599 5603 5605 5609 5614 5617 5620 5623 5627 5632 5639 5646 5651 5656 5660 5665 5670 5675 5679 5684 5688 5693 5697 5700 5704 5707 5711 5714 5717 5720 5722 5724 5726 5728 5729 5731 5732 5733 5734 5735
5582 5585 5588 5592 5596 5598 5602 5605 5609 5612 5614 5617 5622 5627 5633 5639 5644 5648 5652 5656 5661 5665 5669 5674 5678 5682 5686 5690 5694 5697 5700 5703 5706 5709 5712 5714 5716 5718 5719 5720 5721 5723 5724 5725
5580 5583 5586 5588 5591 5594 5598 5601 5604 5607 5610 5613 5616 5624 5628 5632 5636 5640 5644 5647 5651 5655 5660 5664 5668 5672 5676 5680 5683 5686 5690 5693 5696 5699 5701 5703 5705 5707 5708 5710 5711 5712 5713 5714
5578 5580 5582 5586 5588 5591 5594 5597 5600 5603 5606 5608 5611 5619 5621 5625 5627 5631 5634 5638 5641 5646 5650 5654 5658 5662 5666 5669 5673 5676 5679 5682 5685 5688 5690 5692 5694 5696 5697 5699 5700 5701 5702 5703
5575 5577 5579 5582 5586 5588 5589 5592 5595 5598 5601 5603 5606 5613 5613 5616 5619 5622 5625 5629 5632 5636 5640 5644 5648 5652 5655 5659 5662 5665 5668 5671 5674 5677 5679 5681 5683 5685 5686 5688 5689 5690 5692 5692
5573 5574 5577 5579 5581 5584 5586 5588 5590 5592 5594 5597 5601 5604 5607 5608 5611 5614 5617 5620 5623 5627 5630 5634 5637 5641 5645 5648 5652 5655 5658 5660 5663 5665 5667 5669 5671 5673 5675 5677 5678 5679 5680 5681
5570 5572 5573 5575 5578 5580 5582 5585 5586 5588 5590 5592 5595 5597 5599 5601 5603 5606 5608 5611 5614 5618 5621 5624 5627 5631 5634 5637 5641 5644 5647 5649 5652 5654 5656 5658 5660 5661 5663 5665 5666 5667 5669 5670
5567 5568 5570 5572 5573 5575 5577 5580 5581 5583 5584 5586 5588 5591 5593 5594 5595 5598 5600 5603 5606 5609 5611 5615 5617 5620 5623 5626 5629 5632 5635 5638 5640 5642 5644 5646 5648 5649 5651 5653 5654 5656 5657 5658
5564 5565 5566 5568 5569 5570 5572 5575 5576 5578 5579 5581 5582 5586 5586 5587 5589 5591 5593 5595 5597 5600 5602 5605 5607 5610 5613 5616 5619 5621 5624 5626 5629 5631 5633 5634 5636 5637 5639 5641 5642 5643 5645 5646
5562 5562 5562 5563 5564 5565 5570 5569 5570 5572 5573 5575 5576 5577 5578 5580 5582 5583 5585 5587 5589 5591 5593 5596 5598 5601 5603 5606 5608 5611 5613 5616 5618 5619 5621 5623 5624 5626 5627 5629 5630 5631 5632 5633
5558 5558 5558 5558 5558 5559 5563 5563 5564 5565 5567 5568 5569 5570 5571 5572 5574 5576 5577 5578 5580 5582 5585 5587 5589 5591 5594 5596 5598 5600 5603 5604 5606 5608 5610 5611 5613 5614 5616 5617 5619 5620 5620 5621
5555 5554 5554 5553 5553 5554 5558 5558 5557 5559 5560 5561 5561 5562 5563 5565 5567 5569 5569 5570 5572 5574 5576 5578 5580 5582 5584 5586 5588 5590 5592 5593 5595 5596 5598 5600 5601 5603 5604 5606 5607 5608 5608 5609
5551 5550 5549 5548 5547 5549 5551 5550 5551 5553 5554 5554 5554 5555 5556 5557 5559 5560 5561 5562 5564 5565 5567 5569 5571 5573 5574 5576 5577 5579 5581 5582 5584 5585 5587 5588 5589 5591 5592 5594 5595 5596 5596 5597
5545 5544 5544 5543 5543 5546 5544 5544 5545 5546 5546 5547 5547 5547 5548 5549 5550 5551 5552 5553 5555 5556 5558 5560 5561 5563 5564 5566 5567 5569 5570 5571 5573 5574 5575 5576 5578 5579 5581 5582 5583 5583 5584 5585
5540 5540 5538 5539 5540 5538 5538 5538 5538 5538 5539 5539 5540 5540 5540 5541 5542 5543 5544 5545 5546 5548 5549 5551 5552 5553 5555 5556 5557 5558 5560 5560 5562 5563 5564 5565 5566 5567 5569 5570 5571 5571 5572 5573
5535 5534 5533 5532 5533 5532 5531 5531 5531 5531 5531 5532 5532 5532 5533 5533 5534 5535 5536 5537 5538 5539 5540 5541 5543 5544 5545 5546 5547 5548 5549 5550 5551 5552 5553 5554 5555 5556 5557 5558 5559 5560 5560 5561
5529 5527 5526 5526 5526 5526 5525 5524 5524 5524 5524 5525 5525 5525 5525 5525 5526 5527 5528 5528 5529 5530 5531 5532 5533 5534 5535 5536 5537 5538 5539 5540 5540 5541 5542 5543 5544 5545 5546 5547 5548 5549 5549 5550
5523 5522 5520 5520 5520 5519 5519 5518 5517 5517 5517 5517 5517 5517 5517 5517 5518 5519 5519 5520 5520 5521 5521 5522 5523 5524 5525 5526 5527 5528 5529 5529 5530 5531 5532 5533 5534 5535 5536 5537 5538 5538 5539 5539